Preview of NWS' New Version of Forecast
This preview is not operational and should not be used for support decisions.

Regional Weather Roundup (RWR)

Issued by National Weather Service (NWS)

                            
000
ASUS42 KTBW 190816
RWRFL 
FLORIDA REGIONAL WEATHER ROUNDUP
NATIONAL WEATHER SERVICE TAMPA BAY RUSKIN FL
400 AM EDT TUE MAR 19 2019

NOTE: "FAIR" INDICATES FEW OR NO CLOUDS BELOW 12,000 FEET WITH NO
SIGNIFICANT WEATHER AND/OR OBSTRUCTIONS TO VISIBILITY.

FLZ001>010-012>015-112-114-115-190900-
PANHANDLE FLORIDA
  
CITY           SKY/WX    TMP DP  RH WIND       PRES   REMARKS
PENSACOLA      FAIR      54  30  40 NE9       30.24S                  
PENSACOLA NAS  FAIR      54  31  41 NE12      30.24R                  
MILTON NAS     FAIR      50  30  46 N6        30.24F                  
CRESTVIEW      FAIR      50  26  39 N5        30.25F                  
DUKE FIELD     FAIR      50  29  44 N7        30.23S                  
VALPARAISO     FAIR      52  28  39 N9        30.22S                  
MARY ESTHER    MOCLDY    53  27  37 NE12      30.22S                  
PANAMA CITY    FAIR      53  32  44 N8        30.21S                  
TYNDALL AFB    FAIR      56  32  41 N9        30.20S                  
APALACHICOLA   FAIR      56  32  40 NE16      30.17F                  

STATION/POSITION SKY/WX   TEMP    WIND        PRES    WAVE   SWELL
                          AIR SEA DIR/SP/G            HT/PER HT/PER
                          (F)     (DEG/KT/KT) (MB)    (FT/S) (FT/S)
30.1N   87.6W                                 1023.8S   4/ 4
29.2N   88.2W                      40/ 21/ 25 1022.7F   6/ 6
PANAMA CITY BEAC           54 65   20/  6/ 11 1023.5R
TOWER C                    60      30/ 25/ 27 1021.3F

$$
FLZ011-016>038-118-127-128-134-139-239-190900-
NORTH FLORIDA
  
CITY           SKY/WX    TMP DP  RH WIND       PRES   REMARKS
MARIANNA       FAIR      52  30  43 N8        30.22S                  
TALLAHASSEE    FAIR      55  31  39 N8        30.19F                  
PERRY          FAIR      54  35  47 N7        30.18S                  
LIVE OAK       MOCLDY    54  32  43 N7        30.17S                  
CROSS CITY     FAIR      56  35  46 N9        30.15S                  
LAKE CITY      FAIR      54  32  43 N12G17    30.16S                  
GAINESVILLE    FAIR      58  38  47 N10       30.15F                  
WILLISTON        N/A    N/A N/A N/A MISG        N/A                   
PALATKA        FAIR      50  50 100 CALM      30.12F                  
MAYPORT NAS    FAIR      56  46  69 N7        30.13F                  
JACKSONVILLE   CLOUDY    52  39  61 N9        30.14S                  
JAX NAS        CLOUDY    58  39  49 N17       30.14F                  
JAX CECIL      MOCLDY   N/A N/A N/A N7        30.14F                  
FERNANDINA BEA FAIR      54  42  64 N12       30.14F                  
ST AUGUSTINE   FAIR      55  45  68 NW5       30.14F                  
PALM COAST     FAIR      57  45  64 N5        30.11F                  

STATION/POSITION SKY/WX   TEMP    WIND        PRES    WAVE   SWELL
                          AIR SEA DIR/SP/G            HT/PER HT/PER
                          (F)     (DEG/KT/KT) (MB)    (FT/S) (FT/S)
SHELL POINT      NOT AVBL
KEATON BEACH               55      20/  7/  9 1021.6R
CEDAR KEY                  57     360/  5/  6 1020.5F
FERNANDINA                 56 63  330/  5/  9 1021.4F
30.7N   81.3W                 62                N/A     3/ 9
MAYPORT                    55 64  330/  6/  8 1020.2F
31.4N   80.9W              60 62   50/ 21/ 27 1020.6F   3/ 8   3/ 8
ST AUGUSTINE               58 62  330/  6/  6 1020.0F

$$
FLZ040-043>046-052-053-057-058-063-144-190900-
INTERIOR CENTRAL FLORIDA
  
CITY           SKY/WX    TMP DP  RH WIND       PRES   REMARKS
OCALA          FAIR      55  43  63 CALM      30.13F                  
LEESBURG       CLOUDY    58  42  55 N6        30.11F                  
SANFORD        MOCLDY    60  45  57 N7        30.09F                  
ORLANDO EXEC   MOCLDY    58  49  72 N6        30.08F                  
ORLANDO INTL   LGT RAIN  56  50  80 N8        30.08F                  
KISSIMMEE      LGT RAIN  57  52  83 N3        30.09F                  
WINTER HAVEN   LGT RAIN  55  49  80 NE6       30.10F                  
LAKELAND       LGT RAIN  52  48  87 NE7       30.09F                  
BARTOW         LGT RAIN  54  50  87 N7        30.09F                  
SEBRING        RAIN      55  52  90 N10       30.09F                  
OKEECHOBEE     LGT RAIN  57  55  94 N8        30.06S                  

$$
FLZ041-047-054-059-064-141-147-190900-
EAST CENTRAL FLORIDA
  
CITY           SKY/WX    TMP DP  RH WIND       PRES   REMARKS
DAYTONA BEACH  CLOUDY    62  46  55 N6        30.10F                  
DELAND         FAIR      59  45  58 N9        30.09F                  
JFK SPACE CTR  FAIR      59  53  80 NE5       30.07F                  
CAPE CANAVERAL LGT RAIN  59  54  82 NE7       30.06F                  
PATRICK AFB    CLOUDY    62  60  93 NE10      30.07F                  
MELBOURNE      LGT RAIN  61  56  83 N8        30.07F                  
VERO BEACH     LGT RAIN  63  59  87 NE13G22   30.05F                  
FT PIERCE      LGT RAIN  63  59  87 NE9       30.04F                  
STUART         LGT RAIN  64  61  88 NE15G23   30.04F                  

STATION/POSITION SKY/WX   TEMP    WIND        PRES    WAVE   SWELL
                          AIR SEA DIR/SP/G            HT/PER HT/PER
                          (F)     (DEG/KT/KT) (MB)    (FT/S) (FT/S)
28.5N   80.2W              67      50/ 16/ 19 1018.7F   6/ 8   3/ 8
28.9N   78.5W              69 74   20/ 19/ 25 1018.7F   7/ 8   3/ 8
TRIDENT PIER               59 68  360/  5/  7 1019.8F
28.4N   80.5W                 67                N/A     3/ 9
27.5N   80.2W                 69                N/A     6/ 8   2/11

$$
FLZ050-056-061-142-242-148-248-149-249-151-251-155-255-
160-260-190900-
WEST CENTRAL FLORIDA
  
CITY           SKY/WX    TMP DP  RH WIND       PRES   REMARKS
CRYSTAL RIVER  FAIR      55  37  50 N3        30.11F                  
INVERNESS      FAIR      57  41  54 NE6       30.11F                  
BROOKSVILLE    CLOUDY    58  39  49 NE6       30.11F                  
CLEARWATER AIR LGT RAIN  55  45  67 E3        30.10F                  
ST PETE CLEARW LGT RAIN  58  45  62 NE10      30.10F                  
TAMPA INTL     CLOUDY    55  48  77 NE6       30.11F                  
TAMPA EXEC     RAIN      54  50  87 CALM      30.12R                  
PLANT CITY     LGT RAIN  55  50  82 CALM      30.12F                  
MACDILL AFB    LGT RAIN  55  48  78 E10       30.09F                  
PETER O KNIGHT DRIZZLE   55  52  88 NE7       30.11R                  
ST PETERSBURG  LGT RAIN  60  49  66 NE20      30.09F                  
SARASOTA       RAIN      52  48  86 NE10      30.07F                  
VENICE         RAIN      54  52  94 NE17      30.08F                  

STATION/POSITION SKY/WX   TEMP    WIND        PRES    WAVE   SWELL
                          AIR SEA DIR/SP/G            HT/PER HT/PER
                          (F)     (DEG/KT/KT) (MB)    (FT/S) (FT/S)
27.3N   84.2W                 72                N/A     6/ 7
CLEARWATER BEACH           58 71   50/  7/ 10 1019.4F
MIDDLE TAMPA BAY           57      80/ 18/ 23 1019.5F
VENICE                     53 73   30/ 15/ 18 1018.9F

$$
FLZ066-069-070-075>078-162-262-165-265-190900-
SOUTHWEST FLORIDA AND KEYS
  
CITY           SKY/WX    TMP DP  RH WIND       PRES   REMARKS
PUNTA GORDA    LGT RAIN  55  52  89 NE10      30.10S                  
FT MYERS       RAIN      57  56  96 NE14      30.04F FOG              
SOUTHWEST INTL HVY RAIN  58  56  93 NE15      30.05F FOG              
NAPLES           N/A    N/A N/A N/A MISG      30.02F                  
MARCO ISLAND   CLOUDY    60  58  92 N15G22    30.03F                  
IMMOKALEE      LGT RAIN  59  57  94 N13       30.03F                  
MARATHON       CLOUDY    73  66  78 NE16G24   29.94F                  
KEY WEST NAS   LGT RAIN  73  67  81 NE16G22   29.95F                  
KEY WEST INTL  LGT RAIN  72  68  87 NE12G22   29.96F                  

STATION/POSITION SKY/WX   TEMP    WIND        PRES    WAVE   SWELL
                          AIR SEA DIR/SP/G            HT/PER HT/PER
                          (F)     (DEG/KT/KT) (MB)    (FT/S) (FT/S)
NAPLES                     61 75   50/ 11/ 16 1016.6F
26.0N   85.6W              68 79   60/ 21/ 27 1017.4R   6/ 7
DRY TORTUGAS               70      50/ 29/ 33 1014.3F
SAND KEY                   72                 1014.1F
SOMBRERO KEY               72                 1013.1F

$$
FLZ067-068-071>074-168-172>174-190900-
SOUTHEAST FLORIDA 
  
CITY           SKY/WX    TMP DP  RH WIND       PRES   REMARKS
W PALM BEACH   LGT RAIN  66  63  90 N14G23    30.02F FOG              
FT LAUDER-EXEC CLOUDY    68  68 100 NE9       29.99F                  
FT LAUDERDALE  CLOUDY    70  66  87 N10       29.98F                  
POMPANO BEACH  LGT RAIN  69  65  86 NE12G23   30.00F                  
PEMBROKE PINES CLOUDY    69  65  86 N15       30.00F                  
OPA LOCKA      CLOUDY    70  65  84 N14       29.99F                  
MIAMI          CLOUDY    70  67  90 N8        29.99F                  
WEST KENDALL   CLOUDY    68  65  90 N10       29.98F                  
HOMESTEAD      CLOUDY    68  64  87 NW9       29.96F                  

STATION/POSITION SKY/WX   TEMP    WIND        PRES    WAVE   SWELL
                          AIR SEA DIR/SP/G            HT/PER HT/PER
                          (F)     (DEG/KT/KT) (MB)    (FT/S) (FT/S)
PORT EVERGLADES            70      50/ 10/ 21 1015.7F
VIRGINIA KEY               71 78  320/  5/  9 1014.6F
LAKE WORTH                 70 76   30/ 26/ 32 1017.0F
FOWEY ROCKS                71 77  340/ 11/ 12 1016.3F
SETTLEMENT POINT           68      40/ 27/ 30 1015.4F

$$